Flag for Germany Weather past 2 weeks in Bitterfeld-Wolfen, Saxony-Anhalt, Germany

Now
37 °F

Light rain. Mostly cloudy.


Feels Like: 29 °F
Forecast: 35 / 47 °F
Wind: 14 mph from West

Location: Leipzig-Schkeuditz

Current Time: Mar 5, 2015 at 1:58:24 AM

Latest Report: Mar 5, 2015 at 1:20 AM


Visibility: N/A

Pressure: 30.27 "Hg

Humidity: 93%

Dew point: 36 °F

Location of Bitterfeld-WolfenLocation

Historic Weather in Bitterfeld-Wolfen — Graph

°F

Bitterfeld-Wolfen temperature yesterday

Maximum temperature yesterday: 43 °F (at 10:50 AM)
Minimum temperature yesterday: 32 °F (at 6:50 AM)
Average temperature yesterday: 38 °F

Past Weeks' High & Low Weather Summary

 TemperatureHumidityPressure
High52 °F (Feb 20, 2:20 PM)100% (Feb 18, 1:20 AM)30.74 "Hg (Feb 18, 1:20 AM)
Low27 °F (Feb 20, 2:50 AM)37% (Feb 26, 3:20 PM)29.42 "Hg (Feb 21, 11:50 AM)
Average38 °F79%29.94 "Hg
* Reported Feb 18 12:20 AM — Mar 5 12:20 AM, Bitterfeld-Wolfen, Weather by CustomWeather, © 2015

Note: Actual official high and low records may vary slightly from our data, if they occured in-between our weather recording intervals... More about our weather records

Advertising

Bitterfeld-Wolfen weather history for previous 24 hours

 ConditionsComfort  
Time TempWeatherWind HumidityBarometerVisibility
12:20 AM
Thu, Mar 5
37 °FLight rain. Passing clouds.16 mph87%30.27 "HgN/A
11:50 PM
Wed, Mar 4
37 °FPassing clouds.15 mph87%30.27 "HgN/A
11:20 PM37 °FPartly cloudy.15 mph87%30.24 "HgN/A
10:20 PM37 °FPartly cloudy.17 mph87%30.24 "HgN/A
9:50 PM37 °FClear.15 mph81%30.24 "Hg10 mi
9:20 PM37 °FClear.15 mph81%30.24 "Hg10 mi
8:50 PM39 °FClear.15 mph75%30.24 "Hg10 mi
8:20 PM39 °FClear.13 mph75%30.21 "Hg10 mi
7:50 PM37 °FClear.15 mph81%30.21 "Hg10 mi
7:20 PM39 °FClear.17 mph75%30.21 "Hg10 mi
6:50 PM37 °FClear.12 mph75%30.21 "Hg10 mi
6:20 PM41 °FPassing clouds.13 mph70%30.21 "HgN/A
5:50 PM41 °FPartly sunny.17 mph70%30.21 "HgN/A
5:20 PM41 °FSprinkles. Partly sunny.14 mph76%30.21 "HgN/A
4:50 PM41 °FPartly sunny.16 mph70%30.21 "HgN/A
4:20 PM41 °FSprinkles. Broken clouds.17 mph70%30.21 "HgN/A
3:50 PM43 °FPartly sunny.16 mph66%30.18 "HgN/A
3:20 PM43 °FPartly sunny.17 mph66%30.18 "HgN/A
2:50 PM43 °FPartly sunny.18 mph61%30.18 "HgN/A
2:20 PM43 °FPartly sunny.17 mph61%30.18 "HgN/A
1:50 PM41 °FPartly sunny.21 mph66%30.18 "HgN/A
1:20 PM41 °FSprinkles. Partly sunny.23 mph70%30.18 "HgN/A
12:50 PM41 °FPartly sunny.20 mph66%30.18 "HgN/A
12:20 PM43 °FScattered clouds.28 mph61%30.18 "HgN/A
11:50 AM43 °FScattered clouds.24 mph66%30.15 "HgN/A
11:20 AM43 °FPassing clouds.24 mph66%30.15 "HgN/A
10:50 AM43 °FPassing clouds.22 mph71%30.15 "HgN/A
10:20 AM41 °FPassing clouds.20 mph81%30.15 "HgN/A
9:50 AM39 °FPassing clouds.20 mph81%30.15 "HgN/A
9:20 AM37 °FPassing clouds.20 mph87%30.15 "HgN/A
8:50 AM37 °FPassing clouds.16 mph87%30.15 "HgN/A
8:20 AM34 °FPassing clouds.15 mph100%30.12 "HgN/A
7:50 AM34 °FSunny.14 mph93%30.12 "Hg10 mi
7:20 AM34 °FPassing clouds.14 mph93%30.12 "HgN/A
6:50 AM32 °FSunny.13 mph93%30.09 "Hg10 mi
6:20 AM34 °FClear.20 mph93%30.09 "Hg10 mi
5:50 AM34 °FClear.15 mph93%30.09 "Hg10 mi
5:20 AM34 °FClear.15 mph93%30.07 "Hg10 mi
4:50 AM36 °FClear.12 mph93%30.07 "Hg10 mi
4:20 AM34 °FClear.15 mph100%30.04 "Hg10 mi
3:50 AM34 °FClear.14 mph93%30.04 "Hg10 mi
3:20 AM34 °FClear.12 mph93%30.04 "Hg10 mi
2:50 AM34 °FClear.13 mph93%30.01 "Hg10 mi
2:20 AM34 °FClear.10 mph100%30.01 "Hg10 mi
1:50 AM36 °FClear.9 mph100%30.01 "Hg10 mi
1:20 AM34 °FPassing clouds.9 mph100%30.01 "HgN/A
Weather by CustomWeather, © 2015

See weather overviewHow to use our weather pages